Time,TemperatureF,DewpointF,PressureIn,WindDirection,WindDirectionDegrees,WindSpeedMPH,WindSpeedGustMPH,Humidity,HourlyPrecipIn,Conditions,Clouds,dailyrainin,SoftwareType,DateUTC
2013-01-02 00:00:00,3.6,-1.4,30.70,SSE,147,2.0,0.0,79,0.00,,,0.00,WeatherTracker,2013-01-02 07:00:00,
2013-01-02 00:05:00,3.3,-1.7,30.70,SSE,148,2.0,0.0,79,0.00,,,0.00,WeatherTracker,2013-01-02 07:05:00,
2013-01-02 00:10:00,3.1,-1.9,30.70,SSE,147,2.0,0.0,79,0.00,,,0.00,WeatherTracker,2013-01-02 07:10:00,
2013-01-02 00:15:00,3.0,-1.7,30.70,SSE,159,0.0,0.0,80,0.00,,,0.00,WeatherTracker,2013-01-02 07:15:00,
2013-01-02 00:20:00,3.0,-1.5,30.69,South,184,2.0,0.0,81,0.00,,,0.00,WeatherTracker,2013-01-02 07:20:00,
2013-01-02 00:30:00,3.1,-1.1,30.70,SE,145,2.0,0.0,82,0.00,,,0.00,WeatherTracker,2013-01-02 07:30:00,
2013-01-02 00:35:00,3.7,-0.8,30.69,SE,130,3.0,0.0,81,0.00,,,0.00,WeatherTracker,2013-01-02 07:35:00,
2013-01-02 00:45:00,5.4,0.1,30.69,SSE,148,4.0,0.0,78,0.00,,,0.00,WeatherTracker,2013-01-02 07:45:00,
2013-01-02 00:50:00,5.8,0.2,30.69,South,188,3.0,0.0,77,0.00,,,0.00,WeatherTracker,2013-01-02 07:50:00,
2013-01-02 00:55:00,6.3,0.7,30.69,South,190,4.0,0.0,77,0.00,,,0.00,WeatherTracker,2013-01-02 07:55:00,
2013-01-02 01:05:00,6.8,1.1,30.69,South,184,3.0,0.0,77,0.00,,,0.00,WeatherTracker,2013-01-02 08:05:00,
2013-01-02 01:10:00,6.8,1.1,30.69,SW,224,3.0,0.0,77,0.00,,,0.00,WeatherTracker,2013-01-02 08:10:00,
2013-01-02 01:15:00,7.0,1.6,30.69,South,186,3.0,0.0,78,0.00,,,0.00,WeatherTracker,2013-01-02 08:15:00,
2013-01-02 01:25:00,8.0,2.3,30.69,SSE,165,2.0,0.0,77,0.00,,,0.00,WeatherTracker,2013-01-02 08:25:00,
2013-01-02 01:30:00,8.5,2.5,30.68,South,186,2.0,0.0,76,0.00,,,0.00,WeatherTracker,2013-01-02 08:30:00,
2013-01-02 01:35:00,8.8,2.8,30.68,SSW,192,1.0,0.0,76,0.00,,,0.00,WeatherTracker,2013-01-02 08:35:00,
2013-01-02 01:45:00,9.8,2.9,30.68,South,174,2.0,0.0,73,0.00,,,0.00,WeatherTracker,2013-01-02 08:45:00,
2013-01-02 01:55:00,10.5,3.3,30.67,South,169,1.0,0.0,72,0.00,,,0.00,WeatherTracker,2013-01-02 08:55:00,
2013-01-02 02:05:00,10.5,3.9,30.68,South,185,2.0,0.0,74,0.00,,,0.00,WeatherTracker,2013-01-02 09:05:00,
2013-01-02 02:10:00,10.4,3.8,30.67,South,178,1.0,0.0,74,0.00,,,0.00,WeatherTracker,2013-01-02 09:10:00,
2013-01-02 02:20:00,10.3,3.4,30.68,SSE,149,0.0,0.0,73,0.00,,,0.00,WeatherTracker,2013-01-02 09:20:00,
2013-01-02 02:25:00,10.2,3.6,30.68,SSW,192,3.0,0.0,74,0.00,,,0.00,WeatherTracker,2013-01-02 09:25:00,
2013-01-02 02:30:00,10.0,3.4,30.68,South,177,3.0,0.0,74,0.00,,,0.00,WeatherTracker,2013-01-02 09:30:00,
2013-01-02 02:35:00,9.9,3.3,30.68,South,187,0.0,0.0,74,0.00,,,0.00,WeatherTracker,2013-01-02 09:35:00,
2013-01-02 02:45:00,9.5,2.9,30.67,South,186,2.0,0.0,74,0.00,,,0.00,WeatherTracker,2013-01-02 09:45:00,
2013-01-02 02:50:00,9.5,2.9,30.67,South,184,1.0,0.0,74,0.00,,,0.00,WeatherTracker,2013-01-02 09:50:00,
2013-01-02 03:00:00,9.2,2.6,30.68,South,188,3.0,0.0,74,0.00,,,0.00,WeatherTracker,2013-01-02 10:00:00,
2013-01-02 03:05:00,9.1,2.2,30.68,South,175,3.0,0.0,73,0.00,,,0.00,WeatherTracker,2013-01-02 10:05:00,
2013-01-02 03:10:00,8.9,2.0,30.68,SSE,165,3.0,0.0,73,0.00,,,0.00,WeatherTracker,2013-01-02 10:10:00,
2013-01-02 03:15:00,8.7,1.8,30.68,South,191,2.0,0.0,73,0.00,,,0.00,WeatherTracker,2013-01-02 10:15:00,
2013-01-02 03:20:00,8.5,1.7,30.68,South,190,0.0,0.0,73,0.00,,,0.00,WeatherTracker,2013-01-02 10:20:00,
2013-01-02 03:25:00,8.2,1.4,30.68,South,180,1.0,0.0,73,0.00,,,0.00,WeatherTracker,2013-01-02 10:25:00,
2013-01-02 03:35:00,7.5,1.3,30.68,South,169,2.0,0.0,75,0.00,,,0.00,WeatherTracker,2013-01-02 10:35:00,
2013-01-02 03:45:00,7.3,1.4,30.68,SSW,192,2.0,0.0,76,0.00,,,0.00,WeatherTracker,2013-01-02 10:45:00,
2013-01-02 03:50:00,7.3,1.4,30.67,South,173,2.0,0.0,76,0.00,,,0.00,WeatherTracker,2013-01-02 10:50:00,
2013-01-02 04:00:00,7.4,1.4,30.67,SSW,194,4.0,0.0,76,0.00,,,0.00,WeatherTracker,2013-01-02 11:00:00,
2013-01-02 04:05:00,7.4,1.4,30.67,SSE,168,2.0,0.0,76,0.00,,,0.00,WeatherTracker,2013-01-02 11:05:00,
2013-01-02 04:15:00,7.6,1.4,30.67,SSE,158,1.0,0.0,75,0.00,,,0.00,WeatherTracker,2013-01-02 11:15:00,
2013-01-02 04:20:00,7.5,1.3,30.66,SSE,153,0.0,0.0,75,0.00,,,0.00,WeatherTracker,2013-01-02 11:20:00,
2013-01-02 04:30:00,6.9,1.0,30.66,SSW,194,3.0,0.0,76,0.00,,,0.00,WeatherTracker,2013-01-02 11:30:00,
2013-01-02 04:35:00,6.6,1.0,30.66,South,186,2.0,0.0,77,0.00,,,0.00,WeatherTracker,2013-01-02 11:35:00,
2013-01-02 04:40:00,6.4,0.8,30.65,SSW,194,4.0,0.0,77,0.00,,,0.00,WeatherTracker,2013-01-02 11:40:00,
2013-01-02 04:50:00,6.6,1.0,30.65,SSE,150,2.0,0.0,77,0.00,,,0.00,WeatherTracker,2013-01-02 11:50:00,
2013-01-02 04:55:00,6.7,1.0,30.65,South,178,2.0,0.0,77,0.00,,,0.00,WeatherTracker,2013-01-02 11:55:00,
2013-01-02 05:00:00,6.6,1.0,30.65,SSW,195,2.0,0.0,77,0.00,,,0.00,WeatherTracker,2013-01-02 12:00:00,
2013-01-02 05:05:00,6.5,0.9,30.64,South,190,4.0,0.0,77,0.00,,,0.00,WeatherTracker,2013-01-02 12:05:00,
2013-01-02 05:15:00,6.5,1.1,30.64,SE,133,2.0,0.0,78,0.00,,,0.00,WeatherTracker,2013-01-02 12:15:00,
2013-01-02 05:25:00,6.8,1.1,30.64,SSE,152,3.0,0.0,77,0.00,,,0.00,WeatherTracker,2013-01-02 12:25:00,
2013-01-02 05:30:00,7.1,1.2,30.64,SE,146,2.0,0.0,76,0.00,,,0.00,WeatherTracker,2013-01-02 12:30:00,
2013-01-02 05:35:00,7.2,1.3,30.64,SE,146,0.0,0.0,76,0.00,,,0.00,WeatherTracker,2013-01-02 12:35:00,
2013-01-02 05:45:00,6.7,1.3,30.64,South,178,0.0,0.0,78,0.00,,,0.00,WeatherTracker,2013-01-02 12:45:00,
2013-01-02 05:50:00,6.4,1.0,30.64,South,178,2.0,0.0,78,0.00,,,0.00,WeatherTracker,2013-01-02 12:50:00,
2013-01-02 05:55:00,6.2,1.1,30.64,South,178,1.0,0.0,79,0.00,,,0.00,WeatherTracker,2013-01-02 12:55:00,
2013-01-02 06:00:00,6.1,1.0,30.64,SSE,163,2.0,0.0,79,0.00,,,0.00,WeatherTracker,2013-01-02 13:00:00,
2013-01-02 06:05:00,6.0,0.9,30.64,SSE,167,1.0,0.0,79,0.00,,,0.00,WeatherTracker,2013-01-02 13:05:00,
2013-01-02 06:10:00,5.9,0.8,30.64,SSE,150,3.0,0.0,79,0.00,,,0.00,WeatherTracker,2013-01-02 13:10:00,
2013-01-02 06:15:00,6.3,1.2,30.64,SSE,157,0.0,0.0,79,0.00,,,0.00,WeatherTracker,2013-01-02 13:15:00,
2013-01-02 06:20:00,6.5,1.1,30.64,SSE,157,1.0,0.0,78,0.00,,,0.00,WeatherTracker,2013-01-02 13:20:00,
2013-01-02 06:25:00,6.4,0.8,30.64,SSE,163,2.0,0.0,77,0.00,,,0.00,WeatherTracker,2013-01-02 13:25:00,
2013-01-02 06:35:00,6.3,0.9,30.64,SSE,155,2.0,0.0,78,0.00,,,0.00,WeatherTracker,2013-01-02 13:35:00,
2013-01-02 06:40:00,6.5,1.1,30.64,SSE,154,3.0,0.0,78,0.00,,,0.00,WeatherTracker,2013-01-02 13:40:00,
2013-01-02 06:45:00,6.7,1.0,30.64,SE,146,1.0,0.0,77,0.00,,,0.00,WeatherTracker,2013-01-02 13:45:00,
2013-01-02 06:55:00,6.6,1.0,30.64,SSE,165,0.0,0.0,77,0.00,,,0.00,WeatherTracker,2013-01-02 13:55:00,
2013-01-02 07:05:00,6.2,0.8,30.65,South,174,2.0,0.0,78,0.00,,,0.00,WeatherTracker,2013-01-02 14:05:00,
2013-01-02 07:15:00,5.9,0.8,30.65,SSE,167,2.0,0.0,79,0.00,,,0.00,WeatherTracker,2013-01-02 14:15:00,
2013-01-02 07:20:00,5.9,0.5,30.66,SSE,164,2.0,0.0,78,0.00,,,0.00,WeatherTracker,2013-01-02 14:20:00,
2013-01-02 07:30:00,5.9,0.5,30.65,South,181,0.0,0.0,78,0.00,,,0.00,WeatherTracker,2013-01-02 14:30:00,
2013-01-02 07:40:00,5.9,0.8,30.65,SSE,150,2.0,0.0,79,0.00,,,0.00,WeatherTracker,2013-01-02 14:40:00,
2013-01-02 07:45:00,6.2,0.8,30.65,South,186,3.0,0.0,78,0.00,,,0.00,WeatherTracker,2013-01-02 14:45:00,
2013-01-02 07:55:00,6.4,1.0,30.66,South,185,2.0,0.0,78,0.00,,,0.00,WeatherTracker,2013-01-02 14:55:00,
2013-01-02 08:05:00,6.7,1.3,30.66,SSE,163,1.0,0.0,78,0.00,,,0.00,WeatherTracker,2013-01-02 15:05:00,
2013-01-02 08:15:00,6.5,1.4,30.66,North,5,3.0,0.0,79,0.00,,,0.00,WeatherTracker,2013-01-02 15:15:00,
2013-01-02 08:20:00,6.0,0.6,30.67,North,355,4.0,0.0,78,0.00,,,0.00,WeatherTracker,2013-01-02 15:20:00,
2013-01-02 08:25:00,5.5,0.2,30.67,NE,34,2.0,0.0,78,0.00,,,0.00,WeatherTracker,2013-01-02 15:25:00,
2013-01-02 08:30:00,5.1,0.0,30.67,NNE,30,0.0,0.0,79,0.00,,,0.00,WeatherTracker,2013-01-02 15:30:00,
2013-01-02 08:35:00,4.6,-0.2,30.68,NNE,30,0.0,0.0,80,0.00,,,0.00,WeatherTracker,2013-01-02 15:35:00,
2013-01-02 08:45:00,4.1,-0.4,30.68,NNE,30,0.0,0.0,81,0.00,,,0.00,WeatherTracker,2013-01-02 15:45:00,
2013-01-02 08:50:00,3.9,-0.6,30.68,NNE,30,0.0,0.0,81,0.00,,,0.00,WeatherTracker,2013-01-02 15:50:00,
2013-01-02 08:55:00,3.7,-0.5,30.68,NNE,30,0.0,0.0,82,0.00,,,0.00,WeatherTracker,2013-01-02 15:55:00,
2013-01-02 09:00:00,3.6,-0.6,30.68,SSE,150,1.0,0.0,82,0.00,,,0.00,WeatherTracker,2013-01-02 16:00:00,
2013-01-02 09:10:00,3.4,-0.8,30.68,SSE,150,0.0,0.0,82,0.00,,,0.00,WeatherTracker,2013-01-02 16:10:00,
2013-01-02 09:15:00,3.5,-0.7,30.68,SSE,150,0.0,0.0,82,0.00,,,0.00,WeatherTracker,2013-01-02 16:15:00,
2013-01-02 09:20:00,3.7,-0.3,30.68,SSE,155,0.0,0.0,83,0.00,,,0.00,WeatherTracker,2013-01-02 16:20:00,
2013-01-02 09:30:00,4.3,0.6,30.69,SSE,155,0.0,0.0,84,0.00,,,0.00,WeatherTracker,2013-01-02 16:30:00,
2013-01-02 09:35:00,5.7,2.7,30.69,North,5,1.0,0.0,87,0.00,,,0.00,WeatherTracker,2013-01-02 16:35:00,
2013-01-02 09:40:00,7.4,3.9,30.69,North,10,0.0,0.0,85,0.00,,,0.00,WeatherTracker,2013-01-02 16:40:00,
2013-01-02 09:50:00,9.9,4.4,30.69,SSE,147,0.0,0.0,78,0.00,,,0.00,WeatherTracker,2013-01-02 16:50:00,
2013-01-02 09:55:00,10.4,4.4,30.69,SSE,147,0.0,0.0,76,0.00,,,0.00,WeatherTracker,2013-01-02 16:55:00,
2013-01-02 10:00:00,10.9,4.3,30.69,SSE,147,0.0,0.0,74,0.00,,,0.00,WeatherTracker,2013-01-02 17:00:00,
2013-01-02 10:10:00,12.1,4.8,30.68,SSE,147,0.0,0.0,72,0.00,,,0.00,WeatherTracker,2013-01-02 17:10:00,
2013-01-02 10:15:00,13.0,5.1,30.68,SSE,152,0.0,0.0,70,0.00,,,0.00,WeatherTracker,2013-01-02 17:15:00,
2013-01-02 10:25:00,15.4,5.8,30.67,SSE,153,0.0,0.0,65,0.00,,,0.00,WeatherTracker,2013-01-02 17:25:00,
2013-01-02 10:30:00,16.0,5.7,30.66,SSE,153,2.0,0.0,63,0.00,,,0.00,WeatherTracker,2013-01-02 17:30:00,
2013-01-02 10:40:00,16.9,5.8,30.65,South,180,0.0,0.0,61,0.00,,,0.00,WeatherTracker,2013-01-02 17:40:00,
2013-01-02 10:45:00,17.4,5.6,30.65,South,180,0.0,0.0,59,0.00,,,0.00,WeatherTracker,2013-01-02 17:45:00,
2013-01-02 10:50:00,17.9,6.8,30.65,NW,322,0.0,0.0,61,0.00,,,0.00,WeatherTracker,2013-01-02 17:50:00,
2013-01-02 10:55:00,18.1,5.1,30.64,NW,323,0.0,0.0,56,0.00,,,0.00,WeatherTracker,2013-01-02 17:55:00,
2013-01-02 11:00:00,18.4,5.7,30.64,NW,323,0.0,0.0,57,0.00,,,0.00,WeatherTracker,2013-01-02 18:00:00,
2013-01-02 11:05:00,18.6,4.3,30.63,NW,323,0.0,0.0,53,0.00,,,0.00,WeatherTracker,2013-01-02 18:05:00,
2013-01-02 11:10:00,19.0,4.7,30.63,NW,323,0.0,0.0,53,0.00,,,0.00,WeatherTracker,2013-01-02 18:10:00,
2013-01-02 11:20:00,19.8,7.1,30.62,North,355,5.0,0.0,57,0.00,,,0.00,WeatherTracker,2013-01-02 18:20:00,
2013-01-02 11:30:00,19.9,8.3,30.61,NNW,342,11.0,0.0,60,0.00,,,0.00,WeatherTracker,2013-01-02 18:30:00,
2013-01-02 11:35:00,19.6,8.0,30.61,NNW,342,8.0,0.0,60,0.00,,,0.00,WeatherTracker,2013-01-02 18:35:00,
2013-01-02 11:40:00,19.3,7.7,30.61,NNW,340,11.0,0.0,60,0.00,,,0.00,WeatherTracker,2013-01-02 18:40:00,
2013-01-02 11:45:00,19.5,8.3,30.61,NNW,344,7.0,0.0,61,0.00,,,0.00,WeatherTracker,2013-01-02 18:45:00,
2013-01-02 11:55:00,19.3,7.3,30.61,NNW,341,7.0,0.0,59,0.00,,,0.00,WeatherTracker,2013-01-02 18:55:00,
2013-01-02 12:05:00,19.2,8.0,30.60,North,5,9.0,0.0,61,0.00,,,0.00,WeatherTracker,2013-01-02 19:05:00,
2013-01-02 12:15:00,19.6,7.3,30.60,North,5,7.0,0.0,58,0.00,,,0.00,WeatherTracker,2013-01-02 19:15:00,
2013-01-02 12:20:00,20.0,7.6,30.60,NNW,347,12.0,0.0,58,0.00,,,0.00,WeatherTracker,2013-01-02 19:20:00,
2013-01-02 12:25:00,20.3,7.1,30.59,North,355,9.0,0.0,56,0.00,,,0.00,WeatherTracker,2013-01-02 19:25:00,
2013-01-02 12:30:00,20.5,7.3,30.59,NNW,338,9.0,0.0,56,0.00,,,0.00,WeatherTracker,2013-01-02 19:30:00,
2013-01-02 12:40:00,20.9,7.3,30.60,NNW,342,12.0,0.0,55,0.00,,,0.00,WeatherTracker,2013-01-02 19:40:00,
2013-01-02 12:50:00,21.5,7.9,30.59,North,5,10.0,0.0,55,0.00,,,0.00,WeatherTracker,2013-01-02 19:50:00,
2013-01-02 12:55:00,21.7,8.1,30.59,North,355,8.0,0.0,55,0.00,,,0.00,WeatherTracker,2013-01-02 19:55:00,
2013-01-02 13:00:00,21.9,7.8,30.59,NNW,328,10.0,0.0,54,0.00,,,0.00,WeatherTracker,2013-01-02 20:00:00,
2013-01-02 13:05:00,22.0,7.9,30.59,NNW,338,9.0,0.0,54,0.00,,,0.00,WeatherTracker,2013-01-02 20:05:00,
2013-01-02 13:15:00,22.1,8.0,30.59,NNW,344,7.0,0.0,54,0.00,,,0.00,WeatherTracker,2013-01-02 20:15:00,
2013-01-02 13:25:00,22.4,8.7,30.58,NNW,334,8.0,0.0,55,0.00,,,0.00,WeatherTracker,2013-01-02 20:25:00,
2013-01-02 13:30:00,22.3,7.8,30.58,North,355,10.0,0.0,53,0.00,,,0.00,WeatherTracker,2013-01-02 20:30:00,
2013-01-02 13:40:00,22.2,8.5,30.59,North,360,8.0,0.0,55,0.00,,,0.00,WeatherTracker,2013-01-02 20:40:00,
2013-01-02 13:45:00,22.0,8.3,30.59,North,360,10.0,0.0,55,0.00,,,0.00,WeatherTracker,2013-01-02 20:45:00,
2013-01-02 13:50:00,21.9,8.2,30.59,NNW,347,5.0,0.0,55,0.00,,,0.00,WeatherTracker,2013-01-02 20:50:00,
2013-01-02 13:55:00,22.0,8.7,30.59,NNW,338,5.0,0.0,56,0.00,,,0.00,WeatherTracker,2013-01-02 20:55:00,
2013-01-02 14:00:00,22.2,8.9,30.58,NNE,19,6.0,0.0,56,0.00,,,0.00,WeatherTracker,2013-01-02 21:00:00,
2013-01-02 14:10:00,22.5,9.2,30.58,North,9,4.0,0.0,56,0.00,,,0.00,WeatherTracker,2013-01-02 21:10:00,
2013-01-02 14:15:00,22.7,9.4,30.58,NNW,340,7.0,0.0,56,0.00,,,0.00,WeatherTracker,2013-01-02 21:15:00,
2013-01-02 14:25:00,22.2,9.3,30.58,NNW,346,5.0,0.0,57,0.00,,,0.00,WeatherTracker,2013-01-02 21:25:00,
2013-01-02 14:30:00,22.0,8.7,30.58,NNW,346,3.0,0.0,56,0.00,,,0.00,WeatherTracker,2013-01-02 21:30:00,
2013-01-02 14:35:00,21.8,9.3,30.59,NNW,331,9.0,0.0,58,0.00,,,0.00,WeatherTracker,2013-01-02 21:35:00,
2013-01-02 14:45:00,21.8,8.9,30.59,NNW,331,4.0,0.0,57,0.00,,,0.00,WeatherTracker,2013-01-02 21:45:00,
2013-01-02 14:50:00,21.8,8.9,30.59,North,355,6.0,0.0,57,0.00,,,0.00,WeatherTracker,2013-01-02 21:50:00,
2013-01-02 14:55:00,21.7,8.8,30.59,NNE,32,6.0,0.0,57,0.00,,,0.00,WeatherTracker,2013-01-02 21:55:00,
2013-01-02 15:05:00,21.4,8.6,30.59,North,360,4.0,0.0,57,0.00,,,0.00,WeatherTracker,2013-01-02 22:05:00,
2013-01-02 15:15:00,21.1,8.7,30.59,NNE,22,8.0,0.0,58,0.00,,,0.00,WeatherTracker,2013-01-02 22:15:00,
2013-01-02 15:25:00,20.3,9.0,30.59,North,360,10.0,0.0,61,0.00,,,0.00,WeatherTracker,2013-01-02 22:25:00,
2013-01-02 15:35:00,20.1,8.5,30.60,NNE,28,7.0,0.0,60,0.00,,,0.00,WeatherTracker,2013-01-02 22:35:00,
2013-01-02 15:40:00,19.5,8.3,30.60,NNE,20,11.0,0.0,61,0.00,,,0.00,WeatherTracker,2013-01-02 22:40:00,
2013-01-02 15:45:00,19.0,8.2,30.60,North,355,5.0,0.0,62,0.00,,,0.00,WeatherTracker,2013-01-02 22:45:00,
2013-01-02 15:50:00,18.4,8.3,30.61,NNE,12,1.0,0.0,64,0.00,,,0.00,WeatherTracker,2013-01-02 22:50:00,
2013-01-02 16:00:00,17.5,7.8,30.61,NNE,19,6.0,0.0,65,0.00,,,0.00,WeatherTracker,2013-01-02 23:00:00,
2013-01-02 16:05:00,17.3,7.9,30.61,NNE,32,4.0,0.0,66,0.00,,,0.00,WeatherTracker,2013-01-02 23:05:00,
2013-01-02 16:15:00,16.7,8.0,30.61,NNW,346,4.0,0.0,68,0.00,,,0.00,WeatherTracker,2013-01-02 23:15:00,
2013-01-02 16:20:00,16.3,7.6,30.61,WNW,301,0.0,0.0,68,0.00,,,0.00,WeatherTracker,2013-01-02 23:20:00,
2013-01-02 16:25:00,16.2,7.5,30.61,WNW,301,0.0,0.0,68,0.00,,,0.00,WeatherTracker,2013-01-02 23:25:00,
2013-01-02 16:30:00,16.1,7.4,30.62,SSW,198,1.0,0.0,68,0.00,,,0.00,WeatherTracker,2013-01-02 23:30:00,
2013-01-02 16:35:00,15.9,7.2,30.61,SSW,196,1.0,0.0,68,0.00,,,0.00,WeatherTracker,2013-01-02 23:35:00,
2013-01-02 16:45:00,15.4,6.8,30.61,SSW,199,2.0,0.0,68,0.00,,,0.00,WeatherTracker,2013-01-02 23:45:00,
2013-01-02 16:50:00,15.0,7.0,30.61,SW,215,0.0,0.0,70,0.00,,,0.00,WeatherTracker,2013-01-02 23:50:00,
2013-01-02 16:55:00,14.6,6.6,30.61,SSW,195,5.0,0.0,70,0.00,,,0.00,WeatherTracker,2013-01-02 23:55:00,
2013-01-02 17:05:00,14.0,6.0,30.61,South,169,0.0,0.0,70,0.00,,,0.00,WeatherTracker,2013-01-03 00:05:00,
2013-01-02 17:10:00,13.7,5.8,30.61,South,186,0.0,0.0,70,0.00,,,0.00,WeatherTracker,2013-01-03 00:10:00,
2013-01-02 17:15:00,13.5,5.6,30.61,South,181,3.0,0.0,70,0.00,,,0.00,WeatherTracker,2013-01-03 00:15:00,
2013-01-02 17:25:00,12.8,5.5,30.60,SSW,199,5.0,0.0,72,0.00,,,0.00,WeatherTracker,2013-01-03 00:25:00,
2013-01-02 17:35:00,12.3,5.3,30.60,SE,130,2.0,0.0,73,0.00,,,0.00,WeatherTracker,2013-01-03 00:35:00,
2013-01-02 17:45:00,11.9,4.6,30.61,SSW,200,0.0,0.0,72,0.00,,,0.00,WeatherTracker,2013-01-03 00:45:00,
2013-01-02 17:55:00,11.4,4.5,30.61,SSW,195,0.0,0.0,73,0.00,,,0.00,WeatherTracker,2013-01-03 00:55:00,
2013-01-02 18:00:00,11.1,4.5,30.61,SSW,195,0.0,0.0,74,0.00,,,0.00,WeatherTracker,2013-01-03 01:00:00,
2013-01-02 18:10:00,10.5,4.2,30.62,SSW,195,0.0,0.0,75,0.00,,,0.00,WeatherTracker,2013-01-03 01:10:00,
2013-01-02 18:15:00,10.1,3.8,30.62,SSW,195,0.0,0.0,75,0.00,,,0.00,WeatherTracker,2013-01-03 01:15:00,
2013-01-02 18:20:00,9.6,3.6,30.62,SSW,195,0.0,0.0,76,0.00,,,0.00,WeatherTracker,2013-01-03 01:20:00,
2013-01-02 18:25:00,9.3,3.3,30.63,SSW,195,0.0,0.0,76,0.00,,,0.00,WeatherTracker,2013-01-03 01:25:00,
2013-01-02 18:35:00,8.8,3.1,30.64,SSW,195,0.0,0.0,77,0.00,,,0.00,WeatherTracker,2013-01-03 01:35:00,
2013-01-02 18:40:00,8.6,2.9,30.64,SSW,195,0.0,0.0,77,0.00,,,0.00,WeatherTracker,2013-01-03 01:40:00,
2013-01-02 18:50:00,8.2,2.8,30.65,SSW,196,0.0,0.0,78,0.00,,,0.00,WeatherTracker,2013-01-03 01:50:00,
2013-01-02 18:55:00,7.9,2.5,30.65,SSW,196,0.0,0.0,78,0.00,,,0.00,WeatherTracker,2013-01-03 01:55:00,
2013-01-02 19:00:00,7.7,2.3,30.65,SSW,196,0.0,0.0,78,0.00,,,0.00,WeatherTracker,2013-01-03 02:00:00,
2013-01-02 19:10:00,7.3,1.9,30.66,SSW,196,1.0,0.0,78,0.00,,,0.00,WeatherTracker,2013-01-03 02:10:00,
2013-01-02 19:20:00,7.1,1.7,30.66,SE,142,0.0,0.0,78,0.00,,,0.00,WeatherTracker,2013-01-03 02:20:00,
2013-01-02 19:25:00,7.1,1.7,30.66,SE,142,0.0,0.0,78,0.00,,,0.00,WeatherTracker,2013-01-03 02:25:00,
2013-01-02 19:35:00,6.9,1.5,30.66,SSE,151,1.0,0.0,78,0.00,,,0.00,WeatherTracker,2013-01-03 02:35:00,
2013-01-02 19:40:00,6.8,1.4,30.65,South,182,3.0,0.0,78,0.00,,,0.00,WeatherTracker,2013-01-03 02:40:00,
2013-01-02 19:45:00,6.7,1.3,30.65,South,186,2.0,0.0,78,0.00,,,0.00,WeatherTracker,2013-01-03 02:45:00,
2013-01-02 19:55:00,6.7,1.0,30.65,South,169,3.0,0.0,77,0.00,,,0.00,WeatherTracker,2013-01-03 02:55:00,
2013-01-02 20:00:00,6.8,1.1,30.65,South,190,4.0,0.0,77,0.00,,,0.00,WeatherTracker,2013-01-03 03:00:00,
2013-01-02 20:10:00,6.9,1.0,30.64,SSE,165,3.0,0.0,76,0.00,,,0.00,WeatherTracker,2013-01-03 03:10:00,
2013-01-02 20:20:00,7.2,1.3,30.64,South,173,1.0,0.0,76,0.00,,,0.00,WeatherTracker,2013-01-03 03:20:00,
2013-01-02 20:30:00,7.4,0.9,30.64,SSE,163,2.0,0.0,74,0.00,,,0.00,WeatherTracker,2013-01-03 03:30:00,
2013-01-02 20:35:00,7.4,0.9,30.64,SE,137,3.0,0.0,74,0.00,,,0.00,WeatherTracker,2013-01-03 03:35:00,
2013-01-02 20:45:00,7.2,0.7,30.64,SSE,165,3.0,0.0,74,0.00,,,0.00,WeatherTracker,2013-01-03 03:45:00,
2013-01-02 20:55:00,7.4,0.6,30.64,SE,138,2.0,0.0,73,0.00,,,0.00,WeatherTracker,2013-01-03 03:55:00,
2013-01-02 21:05:00,7.2,0.7,30.64,South,187,0.0,0.0,74,0.00,,,0.00,WeatherTracker,2013-01-03 04:05:00,
2013-01-02 21:10:00,7.0,0.8,30.64,SSW,192,0.0,0.0,75,0.00,,,0.00,WeatherTracker,2013-01-03 04:10:00,
2013-01-02 21:15:00,6.8,0.6,30.65,South,188,0.0,0.0,75,0.00,,,0.00,WeatherTracker,2013-01-03 04:15:00,
2013-01-02 21:20:00,6.7,0.5,30.66,South,188,0.0,0.0,75,0.00,,,0.00,WeatherTracker,2013-01-03 04:20:00,
2013-01-02 21:30:00,6.2,0.6,30.66,NNE,18,0.0,0.0,77,0.00,,,0.00,WeatherTracker,2013-01-03 04:30:00,
2013-01-02 21:35:00,6.1,1.0,30.67,North,5,1.0,0.0,79,0.00,,,0.00,WeatherTracker,2013-01-03 04:35:00,
2013-01-02 21:40:00,6.0,0.9,30.67,North,355,0.0,0.0,79,0.00,,,0.00,WeatherTracker,2013-01-03 04:40:00,
2013-01-02 21:50:00,5.5,0.2,30.68,South,186,0.0,0.0,78,0.00,,,0.00,WeatherTracker,2013-01-03 04:50:00,
2013-01-02 22:00:00,4.8,-0.5,30.68,South,184,3.0,0.0,78,0.00,,,0.00,WeatherTracker,2013-01-03 05:00:00,
2013-01-02 22:05:00,4.5,-1.1,30.69,SSW,195,2.0,0.0,77,0.00,,,0.00,WeatherTracker,2013-01-03 05:05:00,
2013-01-02 22:10:00,4.3,-1.3,30.69,SSE,164,0.0,0.0,77,0.00,,,0.00,WeatherTracker,2013-01-03 05:10:00,
2013-01-02 22:15:00,4.2,-1.1,30.69,SSE,154,1.0,0.0,78,0.00,,,0.00,WeatherTracker,2013-01-03 05:15:00,
2013-01-02 22:20:00,4.2,-1.1,30.70,SSE,157,1.0,0.0,78,0.00,,,0.00,WeatherTracker,2013-01-03 05:20:00,
2013-01-02 22:25:00,4.4,-0.9,30.70,South,178,3.0,0.0,78,0.00,,,0.00,WeatherTracker,2013-01-03 05:25:00,
2013-01-02 22:35:00,4.3,-1.3,30.70,South,174,2.0,0.0,77,0.00,,,0.00,WeatherTracker,2013-01-03 05:35:00,
2013-01-02 22:50:00,5.0,-1.2,30.70,SSE,159,3.0,0.0,75,0.00,,,0.00,WeatherTracker,2013-01-03 05:50:00,
2013-01-02 22:55:00,5.3,-0.9,30.70,SSE,154,4.0,0.0,75,0.00,,,0.00,WeatherTracker,2013-01-03 05:55:00,
2013-01-02 23:05:00,5.4,-1.1,30.69,South,173,2.0,0.0,74,0.00,,,0.00,WeatherTracker,2013-01-03 06:05:00,
2013-01-02 23:15:00,5.6,-1.1,30.69,SSE,157,3.0,0.0,73,0.00,,,0.00,WeatherTracker,2013-01-03 06:15:00,
2013-01-02 23:25:00,6.3,-0.8,30.69,SE,145,4.0,0.0,72,0.00,,,0.00,WeatherTracker,2013-01-03 06:25:00,
2013-01-02 23:30:00,6.4,-1.3,30.68,SE,128,3.0,0.0,70,0.00,,,0.00,WeatherTracker,2013-01-03 06:30:00,
2013-01-02 23:35:00,6.5,-1.2,30.68,SE,146,2.0,0.0,70,0.00,,,0.00,WeatherTracker,2013-01-03 06:35:00,
2013-01-02 23:45:00,6.2,-1.5,30.68,SSE,161,0.0,0.0,70,0.00,,,0.00,WeatherTracker,2013-01-03 06:45:00,
2013-01-02 23:55:00,5.6,-1.1,30.69,North,355,0.0,0.0,73,0.00,,,0.00,WeatherTracker,2013-01-03 06:55:00,